TimeCDT,TemperatureF,Dew PointF,Humidity,Sea Level PressureIn,VisibilityMPH,Wind Direction,Wind SpeedMPH,Gust SpeedMPH,PrecipitationIn,Events,Conditions,WindDirDegrees,DateUTC
12:53 AM,50.0,48.0,93,29.66,2.5,Calm,Calm,-,N/A,,Overcast,0,2013-03-24 05:53:00
1:03 AM,50.0,48.2,94,29.66,3.0,Calm,Calm,-,N/A,,Overcast,0,2013-03-24 06:03:00
1:11 AM,50.0,48.2,94,29.65,1.8,Calm,Calm,-,N/A,,Overcast,0,2013-03-24 06:11:00
1:21 AM,50.0,48.2,94,29.65,0.5,Calm,Calm,-,N/A,Fog,Fog,0,2013-03-24 06:21:00
1:53 AM,50.0,48.0,93,29.65,0.5,Calm,Calm,-,N/A,Fog,Fog,0,2013-03-24 06:53:00
2:42 AM,50.0,48.2,94,29.64,0.2,Calm,Calm,-,N/A,Fog,Fog,0,2013-03-24 07:42:00
2:53 AM,50.0,48.0,93,29.65,0.2,Calm,Calm,-,N/A,Fog,Fog,0,2013-03-24 07:53:00
3:09 AM,50.0,48.2,94,29.67,0.5,WNW,8.1,-,N/A,Fog,Fog,290,2013-03-24 08:09:00
3:28 AM,50.0,48.2,94,29.70,1.0,WNW,9.2,20.7,N/A,,Mist,300,2013-03-24 08:28:00
3:40 AM,48.2,48.2,100,29.70,0.8,WNW,9.2,-,N/A,,Mist,290,2013-03-24 08:40:00
3:50 AM,48.2,48.2,100,29.69,1.0,WNW,6.9,-,N/A,,Mist,290,2013-03-24 08:50:00
3:53 AM,48.9,48.0,97,29.70,1.0,WNW,9.2,-,N/A,,Mist,300,2013-03-24 08:53:00
4:27 AM,48.2,48.2,100,29.64,0.8,Calm,Calm,-,N/A,,Mist,0,2013-03-24 09:27:00
4:53 AM,48.9,48.0,97,29.67,0.8,WNW,4.6,-,N/A,,Mist,290,2013-03-24 09:53:00
5:09 AM,48.2,46.4,93,29.72,1.0,WNW,9.2,-,N/A,,Mist,290,2013-03-24 10:09:00
5:40 AM,48.2,46.4,93,29.69,3.0,WNW,6.9,-,0.01,Rain,Light Rain,290,2013-03-24 10:40:00
5:53 AM,48.0,46.9,96,29.70,4.0,West,5.8,-,0.01,,Overcast,280,2013-03-24 10:53:00
6:53 AM,48.0,46.9,96,29.70,2.5,West,5.8,-,N/A,,Overcast,260,2013-03-24 11:53:00
7:05 AM,48.2,46.4,93,29.70,4.0,WSW,8.1,-,N/A,,Overcast,250,2013-03-24 12:05:00
7:53 AM,48.0,46.0,93,29.70,4.0,West,13.8,18.4,N/A,,Overcast,260,2013-03-24 12:53:00
8:43 AM,48.2,46.4,93,29.72,10.0,West,19.6,28.8,0.00,,Overcast,270,2013-03-24 13:43:00
8:53 AM,48.9,45.0,86,29.73,10.0,West,11.5,24.2,0.00,,Overcast,270,2013-03-24 13:53:00
9:06 AM,48.2,46.4,93,29.73,10.0,West,9.2,17.3,N/A,,Overcast,280,2013-03-24 14:06:00
9:25 AM,48.2,44.6,87,29.73,10.0,West,15.0,25.3,0.00,,Overcast,280,2013-03-24 14:25:00
9:34 AM,50.0,42.8,76,29.73,10.0,West,18.4,26.5,0.00,,Mostly Cloudy,270,2013-03-24 14:34:00
9:53 AM,51.1,43.0,74,29.74,10.0,West,15.0,24.2,0.00,,Partly Cloudy,270,2013-03-24 14:53:00
10:22 AM,48.2,39.2,71,29.75,10.0,West,16.1,28.8,N/A,,Overcast,270,2013-03-24 15:22:00
10:53 AM,46.9,36.0,66,29.78,10.0,West,25.3,35.7,N/A,,Overcast,280,2013-03-24 15:53:00
11:03 AM,46.4,35.6,66,29.78,10.0,West,16.1,31.1,N/A,,Overcast,280,2013-03-24 16:03:00
11:37 AM,46.4,33.8,62,29.81,10.0,West,23.0,31.1,N/A,,Overcast,280,2013-03-24 16:37:00
11:53 AM,45.0,33.1,63,29.82,10.0,West,13.8,32.2,N/A,,Overcast,280,2013-03-24 16:53:00
12:53 PM,44.1,32.0,63,29.83,10.0,West,17.3,25.3,N/A,,Overcast,270,2013-03-24 17:53:00
1:53 PM,46.0,30.9,56,29.85,10.0,WNW,18.4,34.5,N/A,,Overcast,290,2013-03-24 18:53:00
2:53 PM,48.0,30.9,52,29.84,10.0,West,20.7,28.8,N/A,,Mostly Cloudy,280,2013-03-24 19:53:00
3:53 PM,48.0,28.9,48,29.87,10.0,WNW,21.9,36.8,N/A,,Partly Cloudy,300,2013-03-24 20:53:00
4:53 PM,46.9,28.0,48,29.90,10.0,WNW,20.7,34.5,N/A,,Mostly Cloudy,290,2013-03-24 21:53:00
5:53 PM,45.0,28.0,52,29.93,10.0,WNW,16.1,35.7,N/A,,Mostly Cloudy,300,2013-03-24 22:53:00
6:53 PM,43.0,27.0,53,29.96,10.0,WNW,13.8,31.1,N/A,,Mostly Cloudy,300,2013-03-24 23:53:00
7:53 PM,41.0,27.0,57,30.00,10.0,WNW,15.0,21.9,N/A,,Clear,300,2013-03-25 00:53:00
8:53 PM,39.9,27.0,60,30.02,10.0,WNW,12.7,21.9,N/A,,Partly Cloudy,290,2013-03-25 01:53:00
9:53 PM,39.0,26.1,60,30.06,10.0,WNW,9.2,-,N/A,,Clear,300,2013-03-25 02:53:00
10:53 PM,37.0,26.1,65,30.07,10.0,NW,5.8,-,N/A,,Clear,320,2013-03-25 03:53:00
11:53 PM,37.0,24.1,59,30.09,10.0,NW,10.4,21.9,N/A,,Clear,320,2013-03-25 04:53:00